Theta_e
341 342 343 343 342 341 339 336 334 333 334 334 333 329 327 327 329 330 330 330 331 331 332 331 329 328 325
339 335 337 339 339 339 336 333 330 330 330 330 328 328 325 326 327 329 328 329 329 329 330 328 327 326 323
341 335 333 334 335 333 330 327 324 322 321 323 324 326 325 325 327 327 327 325 324 325 327 325 324 322 321
341 337 338 338 336 333 329 325 326 324 323 322 320 323 324 324 325 326 325 325 320 315 316 320 318 317 316
338 340 339 338 336 333 329 327 331 323 320 319 317 316 315 316 317 317 319 316 315 314 313 314 313 312 311
338 339 337 338 337 335 332 330 329 324 322 317 316 315 313 311 310 312 313 313 312 311 310 311 310 309 311
338 337 337 337 336 336 334 332 331 326 324 320 319 318 316 318 314 312 311 310 308 307 307 307 306 305 307
337 336 336 335 337 336 336 335 333 328 326 322 317 318 318 317 313 314 310 306 304 302 302 302 301 302 303
332 334 335 335 335 335 334 336 334 330 327 323 317 317 318 317 313 307 305 303 298 297 296 295 296 296 298
331 331 330 331 332 333 335 335 334 333 330 325 318 317 319 314 307 303 301 299 297 293 293 291 291 292 292
329 328 328 329 329 330 331 334 334 333 330 326 321 318 317 310 306 303 299 298 296 294 292 290 289 289 289
325 325 325 325 326 328 328 329 332 333 331 327 325 318 313 309 305 301 298 296 295 294 292 291 288 288 288
323 322 321 322 322 324 325 326 328 330 332 327 323 317 313 309 304 301 298 294 293 293 290 289 288 287 286
322 322 321 320 318 320 319 320 322 323 326 324 320 315 313 309 305 299 296 293 292 291 290 289 284 283 285
320 317 312 311 310 310 312 315 317 318 322 321 318 316 313 310 304 297 295 294 291 292 292 293 285 283 281
315 313 312 311 309 310 310 309 312 312 317 319 317 315 313 310 305 298 297 297 294 291 292 295 294 286 282
Wind_Speed
12 11 12 13 13 13 13 13 13 13 14 14 15 16 17 17 18 18 18 17 17 19 21 21 22 19 11
7 11 11 12 12 12 13 12 12 12 12 12 11 15 17 17 17 18 17 17 16 16 16 17 16 14 8
9 8 10 12 12 12 12 13 10 6 9 7 9 14 16 16 17 17 16 15 12 12 14 15 11 6 6
9 10 8 8 7 8 7 10 8 8 7 8 8 12 14 14 16 17 16 11 7 4 5 9 6 7 5
6 8 5 5 6 6 9 7 5 8 9 5 5 4 4 6 5 7 5 2 7 5 5 5 6 5 4
6 7 7 7 6 6 8 8 7 6 8 7 5 6 5 3 5 4 4 6 7 7 7 7 7 5 6
10 7 6 8 8 9 9 8 8 7 6 8 7 6 5 5 5 5 5 5 6 7 7 7 8 7 7
9 9 7 5 9 8 8 9 11 7 7 6 7 6 4 4 5 5 6 5 5 6 7 6 6 6 6
7 6 6 6 5 6 5 10 12 11 9 8 6 7 6 5 8 8 7 5 5 5 8 6 5 6 6
10 7 5 6 5 5 6 8 12 12 13 11 7 7 7 7 7 7 7 6 5 4 6 5 5 5 6
9 6 6 6 5 5 5 7 11 12 12 11 10 6 9 8 8 8 7 9 8 4 7 6 5 4 4
5 5 4 5 4 4 4 4 10 9 14 11 10 11 9 9 8 8 10 5 7 8 8 7 5 4 4
8 8 6 8 4 3 4 4 6 7 13 13 9 12 11 11 11 11 9 11 7 9 7 5 4 4 4
10 9 7 6 4 4 4 5 5 5 8 11 13 12 14 10 12 12 13 9 3 8 5 4 4 2 1
12 6 3 2 2 3 5 6 6 6 9 12 13 13 13 12 12 15 15 15 10 10 11 6 4 5 4
12 10 13 11 10 7 5 4 7 7 9 12 14 14 15 11 13 13 13 12 8 14 6 3 3 7 5
Wind_Direction
149 146 141 136 129 127 124 118 113 110 109 109 110 110 109 108 107 104 100 98 82 74 68 66 67 65 63
155 153 147 139 135 124 116 112 107 103 103 102 104 114 114 112 111 106 104 94 77 71 73 67 62 61 58
158 161 149 146 137 128 127 129 124 130 121 108 108 115 116 117 115 111 105 93 73 66 70 60 62 61 59
160 151 158 154 152 150 152 165 149 143 122 105 103 110 113 117 121 122 123 116 82 67 70 64 64 53 47
155 158 166 164 166 162 165 193 139 120 121 118 115 100 108 118 128 128 132 89 78 68 63 90 77 58 50
161 170 173 169 175 169 170 198 132 135 142 145 147 151 156 154 156 118 89 81 72 67 64 65 77 62 57
181 175 179 178 178 177 178 185 153 156 155 160 154 167 168 159 132 112 101 94 93 81 68 70 74 69 69
186 181 184 193 179 173 180 178 166 162 161 149 145 159 155 130 121 130 121 115 100 102 87 74 77 80 77
191 191 174 192 170 178 172 173 174 170 170 155 156 160 160 136 127 109 102 93 97 99 101 84 79 77 77
190 212 191 174 182 178 175 173 182 176 171 156 163 172 159 132 126 125 134 124 113 119 120 103 91 84 80
185 191 197 188 185 183 176 178 181 176 173 161 169 163 150 140 144 148 143 148 141 131 121 106 101 97 93
184 187 186 182 198 191 191 180 171 181 175 169 172 153 154 150 148 150 147 147 141 140 123 103 95 96 101
190 192 191 196 188 173 164 165 184 170 183 171 162 159 162 168 166 159 143 147 146 137 117 86 65 96 116
194 196 197 185 193 175 168 178 198 181 169 171 167 170 171 164 159 161 153 147 128 177 131 123 138 323 249
190 173 159 131 121 158 184 196 197 194 192 177 171 175 172 172 172 172 168 167 168 197 183 144 147 200 135
185 187 193 196 195 205 184 168 183 204 203 186 179 174 176 177 177 179 176 180 167 186 191 234 105 137 160